2015-10-22 00:00:57 r, 20.20m,0000000001Hz,0000657657c,0000001.427s, 013.8C,00002191
2015-10-22 00:10:57 r, 20.24m,0000000001Hz,0000681600c,0000001.479s, 013.5C,00002191
2015-10-22 00:20:59 r, 20.29m,0000000001Hz,0000709412c,0000001.540s, 013.5C,00002191
2015-10-22 00:30:57 r, 20.34m,0000000001Hz,0000739117c,0000001.604s, 013.5C,00002191
2015-10-22 00:40:57 r, 20.39m,0000000001Hz,0000772629c,0000001.677s, 013.2C,00002191
2015-10-22 00:50:59 r, 20.45m,0000000000Hz,0000814112c,0000001.767s, 013.2C,00002191
2015-10-22 01:00:57 r, 20.52m,0000000001Hz,0000875451c,0000001.900s, 013.2C,00002191
2015-10-22 01:10:57 r, 20.61m,0000000000Hz,0000943665c,0000002.048s, 013.2C,00002191
2015-10-22 01:20:58 r, 20.69m,0000000001Hz,0001016354c,0000002.206s, 013.5C,00002191
2015-10-22 01:30:57 r, 20.78m,0000000000Hz,0001110903c,0000002.411s, 013.5C,00002191
2015-10-22 01:40:57 r, 20.86m,0000000001Hz,0001189288c,0000002.581s, 013.5C,00002191
2015-10-22 01:50:59 r, 20.91m,0000000000Hz,0001244120c,0000002.700s, 012.8C,00002191
2015-10-22 02:00:57 r, 20.94m,0000000001Hz,0001273402c,0000002.763s, 012.5C,00002191
2015-10-22 02:10:57 r, 20.94m,0000000000Hz,0001279511c,0000002.777s, 011.9C,00002191
2015-10-22 02:20:57 r, 20.93m,0000000000Hz,0001269212c,0000002.754s, 011.9C,00002191
2015-10-22 02:30:57 r, 20.83m,0000000001Hz,0001155152c,0000002.507s, 011.9C,00002191
2015-10-22 02:40:57 r, 20.92m,0000000001Hz,0001259048c,0000002.732s, 011.9C,00002191
2015-10-22 02:50:58 r, 20.93m,0000000001Hz,0001264201c,0000002.743s, 011.9C,00002191
2015-10-22 03:00:57 r, 20.92m,0000000000Hz,0001259646c,0000002.734s, 011.9C,00002191
2015-10-22 03:10:57 r, 20.92m,0000000001Hz,0001251198c,0000002.715s, 011.6C,00002191
2015-10-22 03:20:58 r, 20.92m,0000000000Hz,0001248668c,0000002.710s, 011.6C,00002191
2015-10-22 03:30:57 r, 20.91m,0000000001Hz,0001243770c,0000002.699s, 011.2C,00002191
2015-10-22 03:40:57 r, 20.90m,0000000001Hz,0001230550c,0000002.670s, 011.2C,00002191
2015-10-22 03:50:58 r, 20.89m,0000000001Hz,0001219568c,0000002.647s, 011.2C,00002191
2015-10-22 04:00:57 r, 20.89m,0000000000Hz,0001227585c,0000002.664s, 011.2C,00002191
2015-10-22 04:10:57 r, 20.90m,0000000000Hz,0001234311c,0000002.679s, 010.9C,00002191
2015-10-22 04:20:57 r, 20.90m,0000000000Hz,0001236958c,0000002.684s, 010.9C,00002191
2015-10-22 04:30:57 r, 20.90m,0000000000Hz,0001229385c,0000002.668s, 010.9C,00002191
2015-10-22 04:40:57 r, 20.89m,0000000000Hz,0001225275c,0000002.659s, 010.9C,00002191
2015-10-22 04:50:57 r, 20.89m,0000000001Hz,0001221855c,0000002.652s, 010.6C,00002191
2015-10-22 05:00:57 r, 20.88m,0000000000Hz,0001207618c,0000002.621s, 010.6C,00002191
2015-10-22 05:10:57 r, 20.85m,0000000000Hz,0001176875c,0000002.554s, 010.9C,00002191
2015-10-22 05:20:57 r, 20.83m,0000000001Hz,0001162839c,0000002.524s, 011.2C,00002191
2015-10-22 05:30:57 r, 20.82m,0000000000Hz,0001151569c,0000002.499s, 011.6C,00002191
2015-10-22 05:40:57 r, 20.82m,0000000000Hz,0001150012c,0000002.496s, 011.6C,00002191
2015-10-22 05:50:57 r, 20.80m,0000000000Hz,0001137216c,0000002.468s, 011.2C,00002191
2015-10-22 06:00:57 r, 20.80m,0000000000Hz,0001124626c,0000002.441s, 011.2C,00002191
2015-10-22 06:10:57 r, 20.78m,0000000001Hz,0001112811c,0000002.415s, 011.2C,00002191
2015-10-22 06:20:59 r, 20.76m,0000000000Hz,0001083609c,0000002.352s, 011.2C,00002191
2015-10-22 06:30:57 r, 20.64m,0000000000Hz,0000969735c,0000002.104s, 010.9C,00002191
2015-10-22 06:40:57 r, 20.23m,0000000001Hz,0000664205c,0000001.441s, 010.9C,00002191
2015-10-22 06:50:57 r, 19.25m,0000000002Hz,0000272583c,0000000.592s, 010.6C,00002191
2015-10-22 07:00:57 r, 17.88m,0000000006Hz,0000077696c,0000000.169s, 010.6C,00002191
2015-10-22 07:10:57 r, 16.17m,0000000029Hz,0000016107c,0000000.035s, 010.9C,00002191
2015-10-22 07:20:58 r, 14.29m,0000000163Hz,0000000000c,0000000.000s, 010.9C,00002191
2015-10-22 07:30:57 r, 12.25m,0000001070Hz,0000000000c,0000000.000s, 010.9C,00002191
2015-10-22 07:40:57 r, 10.22m,0000006888Hz,0000000000c,0000000.000s, 010.9C,00002191
2015-10-22 07:50:58 r, 08.54m,0000032430Hz,0000000000c,0000000.000s, 010.9C,00002191
2015-10-22 08:00:57 r, 07.37m,0000095257Hz,0000000000c,0000000.000s, 010.9C,00002191
2015-10-22 08:10:57 r, 06.56m,0000200476Hz,0000000000c,0000000.000s, 010.9C,00002191
2015-10-22 08:20:57 r, 05.96m,0000350946Hz,0000000000c,0000000.000s, 010.9C,00002191
2015-10-22 08:30:57 r, 00.00m,0000524105Hz,0000000000c,0000000.000s, 010.9C,00002191
2015-10-22 08:40:57 r, 00.00m,0000597156Hz,0000000000c,0000000.000s, 011.2C,00002191
2015-10-22 08:50:57 r, 00.00m,0000597090Hz,0000000000c,0000000.000s, 011.9C,00002191
2015-10-22 09:00:57 r, 00.00m,0000596965Hz,0000000000c,0000000.000s, 012.2C,00002191
2015-10-22 09:10:57 r, 00.00m,0000597011Hz,0000000000c,0000000.000s, 013.2C,00002191
2015-10-22 09:20:57 r, 00.00m,0000596977Hz,0000000000c,0000000.000s, 014.1C,00002191
2015-10-22 09:30:57 r, 00.00m,0000596817Hz,0000000000c,0000000.000s, 015.1C,00002191
2015-10-22 09:40:57 r, 00.00m,0000596711Hz,0000000000c,0000000.000s, 016.7C,00002191
2015-10-22 09:50:57 r, 00.00m,0000596576Hz,0000000000c,0000000.000s, 018.0C,00002191
2015-10-22 10:00:57 r, 00.00m,0000596463Hz,0000000000c,0000000.000s, 019.0C,00002191
2015-10-22 10:10:57 r, 00.00m,0000596337Hz,0000000000c,0000000.000s, 019.9C,00002191
2015-10-22 10:20:57 r, 00.00m,0000596403Hz,0000000000c,0000000.000s, 020.9C,00002191
2015-10-22 10:30:57 r, 00.00m,0000596201Hz,0000000000c,0000000.000s, 021.9C,00002191
2015-10-22 10:40:57 r, 00.00m,0000596167Hz,0000000000c,0000000.000s, 022.8C,00002191
2015-10-22 10:50:57 r, 00.00m,0000595966Hz,0000000000c,0000000.000s, 023.5C,00002191
2015-10-22 11:00:57 r, 00.00m,0000595816Hz,0000000000c,0000000.000s, 024.8C,00002191
2015-10-22 11:10:57 r, 00.00m,0000595729Hz,0000000000c,0000000.000s, 025.7C,00002191
2015-10-22 11:20:57 r, 00.00m,0000595738Hz,0000000000c,0000000.000s, 027.3C,00002191
2015-10-22 11:30:57 r, 00.00m,0000595521Hz,0000000000c,0000000.000s, 028.3C,00002191
2015-10-22 11:40:57 r, 00.00m,0000595320Hz,0000000000c,0000000.000s, 029.0C,00002191
2015-10-22 11:50:57 r, 00.00m,0000595276Hz,0000000000c,0000000.000s, 029.9C,00002191
2015-10-22 12:00:57 r, 00.00m,0000595201Hz,0000000000c,0000000.000s, 030.6C,00002191
2015-10-22 12:10:57 r, 00.00m,0000595194Hz,0000000000c,0000000.000s, 031.2C,00002191
2015-10-22 12:20:58 r, 00.00m,0000595124Hz,0000000000c,0000000.000s, 032.2C,00002191
2015-10-22 12:30:57 r, 00.00m,0000595123Hz,0000000000c,0000000.000s, 032.5C,00002191
2015-10-22 12:40:57 r, 00.00m,0000594976Hz,0000000000c,0000000.000s, 032.5C,00002191
2015-10-22 12:50:57 r, 00.00m,0000594993Hz,0000000000c,0000000.000s, 033.1C,00002191
2015-10-22 13:00:59 r, 00.00m,0000594949Hz,0000000000c,0000000.000s, 033.1C,00002191
2015-10-22 13:10:57 r, 00.00m,0000594898Hz,0000000000c,0000000.000s, 033.5C,00002191
2015-10-22 13:20:57 r, 00.00m,0000594909Hz,0000000000c,0000000.000s, 033.8C,00002191
2015-10-22 13:30:58 r, 00.00m,0000594854Hz,0000000000c,0000000.000s, 034.1C,00002191
2015-10-22 13:40:57 r, 00.00m,0000594730Hz,0000000000c,0000000.000s, 034.1C,00002191
2015-10-22 13:50:57 r, 00.00m,0000594694Hz,0000000000c,0000000.000s, 034.4C,00002191
2015-10-22 14:00:58 r, 00.00m,0000594930Hz,0000000000c,0000000.000s, 033.1C,00002191
2015-10-22 14:10:57 r, 00.00m,0000595338Hz,0000000000c,0000000.000s, 030.2C,00002191
2015-10-22 14:20:57 r, 00.00m,0000595503Hz,0000000000c,0000000.000s, 028.0C,00002191
2015-10-22 14:30:57 r, 00.00m,0000595542Hz,0000000000c,0000000.000s, 027.0C,00002191
2015-10-22 14:40:57 r, 00.00m,0000595614Hz,0000000000c,0000000.000s, 027.0C,00002191
2015-10-22 14:50:57 r, 00.00m,0000595229Hz,0000000000c,0000000.000s, 028.3C,00002191
2015-10-22 15:00:58 r, 00.00m,0000595202Hz,0000000000c,0000000.000s, 030.6C,00002191
2015-10-22 15:10:57 r, 00.00m,0000595083Hz,0000000000c,0000000.000s, 031.9C,00002191
2015-10-22 15:20:57 r, 00.00m,0000595143Hz,0000000000c,0000000.000s, 032.8C,00002191
2015-10-22 15:30:57 r, 00.00m,0000595122Hz,0000000000c,0000000.000s, 033.1C,00002191
2015-10-22 15:40:57 r, 00.00m,0000595107Hz,0000000000c,0000000.000s, 033.1C,00002191
2015-10-22 15:50:57 r, 00.00m,0000594938Hz,0000000000c,0000000.000s, 032.8C,00002191
2015-10-22 16:00:57 r, 00.00m,0000595094Hz,0000000000c,0000000.000s, 032.8C,00002191
2015-10-22 16:10:57 r, 00.00m,0000595192Hz,0000000000c,0000000.000s, 032.8C,00002191
2015-10-22 16:20:57 r, 00.00m,0000595092Hz,0000000000c,0000000.000s, 032.5C,00002191
2015-10-22 16:30:59 r, 00.00m,0000595154Hz,0000000000c,0000000.000s, 032.2C,00002191
2015-10-22 16:40:57 r, 00.00m,0000595190Hz,0000000000c,0000000.000s, 031.5C,00002191
2015-10-22 16:50:57 r, 00.00m,0000595201Hz,0000000000c,0000000.000s, 031.2C,00002191
2015-10-22 17:00:59 r, 00.00m,0000595233Hz,0000000000c,0000000.000s, 030.9C,00002191
2015-10-22 17:10:57 r, 00.00m,0000595233Hz,0000000000c,0000000.000s, 030.6C,00002191
2015-10-22 17:20:57 r, 00.00m,0000595225Hz,0000000000c,0000000.000s, 029.9C,00002191
2015-10-22 17:30:58 r, 00.00m,0000595266Hz,0000000000c,0000000.000s, 029.6C,00002191
2015-10-22 17:40:57 r, 00.00m,0000542325Hz,0000000000c,0000000.000s, 029.0C,00002191
2015-10-22 17:50:57 r, 00.00m,0000432122Hz,0000000000c,0000000.000s, 028.3C,00002191
2015-10-22 18:00:58 r, 06.04m,0000324956Hz,0000000000c,0000000.000s, 027.7C,00002191
2015-10-22 18:10:57 r, 06.51m,0000211603Hz,0000000000c,0000000.000s, 026.7C,00002191
2015-10-22 18:20:57 r, 07.27m,0000104531Hz,0000000000c,0000000.000s, 026.1C,00002191
2015-10-22 18:30:58 r, 08.30m,0000040589Hz,0000000000c,0000000.000s, 025.1C,00002191
2015-10-22 18:40:57 r, 09.86m,0000009600Hz,0000000000c,0000000.000s, 024.4C,00002191
2015-10-22 18:50:57 r, 11.91m,0000001459Hz,0000000000c,0000000.000s, 023.8C,00002191
2015-10-22 19:00:57 r, 14.08m,0000000196Hz,0000000000c,0000000.000s, 023.2C,00002191
2015-10-22 19:10:57 r, 16.12m,0000000030Hz,0000015341c,0000000.033s, 022.8C,00002191
2015-10-22 19:20:57 r, 17.66m,0000000007Hz,0000063365c,0000000.138s, 022.5C,00002191
2015-10-22 19:30:58 r, 18.70m,0000000002Hz,0000165072c,0000000.358s, 022.2C,00002191
2015-10-22 19:40:57 r, 19.18m,0000000002Hz,0000257134c,0000000.558s, 021.5C,00002191
2015-10-22 19:50:57 r, 19.31m,0000000002Hz,0000289863c,0000000.629s, 021.2C,00002191
2015-10-22 20:00:57 r, 19.31m,0000000001Hz,0000289839c,0000000.629s, 021.2C,00002191
2015-10-22 20:10:57 r, 19.30m,0000000001Hz,0000287169c,0000000.623s, 020.9C,00002191
2015-10-22 20:20:57 r, 19.29m,0000000001Hz,0000285077c,0000000.619s, 020.6C,00002191
2015-10-22 20:30:57 r, 19.27m,0000000002Hz,0000278993c,0000000.605s, 020.3C,00002191
2015-10-22 20:40:57 r, 19.24m,0000000002Hz,0000273598c,0000000.594s, 020.3C,00002191
2015-10-22 20:50:57 r, 19.25m,0000000002Hz,0000276329c,0000000.600s, 019.9C,00002191
2015-10-22 21:00:57 r, 19.23m,0000000002Hz,0000270918c,0000000.588s, 019.9C,00002191
2015-10-22 21:10:57 r, 19.14m,0000000002Hz,0000249703c,0000000.542s, 019.6C,00002191
2015-10-22 21:20:57 r, 19.25m,0000000002Hz,0000274469c,0000000.596s, 019.9C,00002191
2015-10-22 21:30:59 r, 19.23m,0000000002Hz,0000268923c,0000000.584s, 019.9C,00002191
2015-10-22 21:40:57 r, 19.10m,0000000002Hz,0000239088c,0000000.519s, 019.9C,00002191
2015-10-22 21:50:57 r, 19.13m,0000000002Hz,0000245797c,0000000.533s, 019.9C,00002191
2015-10-22 22:00:59 r, 19.17m,0000000002Hz,0000254417c,0000000.552s, 019.9C,00002191
2015-10-22 22:10:57 r, 19.19m,0000000002Hz,0000260226c,0000000.565s, 019.9C,00002191
2015-10-22 22:20:57 r, 19.23m,0000000002Hz,0000269685c,0000000.585s, 019.6C,00002191
2015-10-22 22:30:57 r, 19.25m,0000000002Hz,0000276421c,0000000.600s, 019.6C,00002191
2015-10-22 22:40:57 r, 19.23m,0000000001Hz,0000269142c,0000000.584s, 019.3C,00002191
2015-10-22 22:50:57 r, 19.25m,0000000002Hz,0000275481c,0000000.598s, 019.3C,00002191
2015-10-22 23:00:59 r, 19.03m,0000000002Hz,0000224554c,0000000.487s, 019.3C,00002191
2015-10-22 23:10:57 r, 19.01m,0000000002Hz,0000219939c,0000000.477s, 019.3C,00002191
2015-10-22 23:20:57 r, 19.14m,0000000002Hz,0000248717c,0000000.540s, 019.3C,00002191
2015-10-22 23:30:57 r, 18.94m,0000000002Hz,0000206428c,0000000.448s, 019.3C,00002191
2015-10-22 23:40:57 r, 18.79m,0000000002Hz,0000179554c,0000000.390s, 019.3C,00002191
2015-10-22 23:50:57 r, 18.83m,0000000003Hz,0000185607c,0000000.403s, 019.3C,00002191
